Lapse_Rate
6.6 6.7 6.7 6.7 6.7 6.6 6.6 6.6 6.5 6.5 6.6 6.7 6.6 6.6 6.7 6.8 6.9 6.7 6.8 6.8 7.2 7.3 7.3 7.5 7.3 7.3 7.2 7.5 6.9 6.6 5.8 5.7 6.4 6.7 7.3 7.7 7.7 7.7 7.9 7.7 7.7 7.6 7.7 7.5 7.5
6.4 6.4 6.4 6.3 6.2 6.2 6.2 6.1 6.1 6.2 6.3 6.4 6.4 6.5 6.6 6.8 7.0 6.8 6.8 6.9 6.8 6.8 6.8 7.0 7.4 6.9 7.2 7.3 7.1 6.8 6.2 6.5 7.0 7.1 7.5 7.7 7.7 7.8 7.8 7.9 7.9 7.8 7.7 7.4 7.5
5.9 5.9 6.0 6.0 6.0 5.9 5.9 5.9 5.8 5.8 5.9 6.1 6.3 6.4 6.4 6.6 6.6 6.7 6.9 6.9 7.0 6.9 6.8 6.7 7.0 6.9 6.8 7.0 7.0 7.0 6.6 7.4 7.6 7.4 7.7 7.9 7.9 7.9 7.9 8.3 8.3 8.1 8.0 7.6 7.9
5.8 5.9 5.9 5.9 5.9 5.9 5.9 5.9 5.9 5.9 5.9 6.0 6.1 6.0 6.0 5.8 6.0 6.2 6.5 6.7 6.9 6.9 6.9 6.9 6.8 6.7 6.8 6.6 7.1 7.0 7.3 7.4 7.7 7.5 7.8 7.9 7.6 7.4 7.4 8.1 8.5 8.5 8.4 8.0 8.0
6.1 6.1 6.1 6.2 6.2 6.1 6.1 6.2 6.2 6.2 6.1 6.2 6.0 6.0 6.1 6.3 6.3 6.2 6.4 6.7 6.6 6.7 6.7 6.8 6.6 6.6 6.7 6.7 6.9 6.8 7.1 7.2 7.5 7.2 7.7 7.7 7.5 7.7 7.7 7.9 8.2 8.5 8.4 8.4 8.7
6.1 6.2 6.2 6.2 6.2 6.1 6.1 6.0 6.1 6.0 6.0 5.9 5.9 5.8 6.0 6.4 6.2 6.3 6.1 5.9 6.3 6.2 6.2 6.4 6.3 6.1 6.1 6.2 6.3 6.5 6.7 6.7 6.8 7.3 7.3 7.2 7.8 7.8 7.5 8.2 8.3 8.2 8.3 8.5 8.5
6.1 6.1 6.1 6.0 6.0 6.1 6.0 5.9 6.0 5.7 5.7 5.6 5.5 5.5 5.5 5.3 5.3 5.5 5.8 5.8 5.6 5.7 5.8 5.8 6.0 6.0 5.9 5.7 5.8 6.2 6.0 6.0 6.6 6.9 6.9 7.0 6.9 7.1 7.4 7.8 8.0 8.1 8.2 8.2 8.0
6.2 6.2 6.1 6.0 5.9 6.0 5.9 5.8 5.8 5.5 5.5 5.6 5.5 5.4 5.2 5.1 5.1 4.9 4.9 5.1 5.3 5.3 5.2 5.5 5.1 5.6 5.6 5.4 5.4 5.3 5.5 5.4 5.8 6.6 6.9 6.4 6.7 7.6 7.5 7.4 7.5 7.9 7.9 7.8 7.7
6.5 6.5 6.5 6.3 6.0 6.0 6.0 5.6 5.6 5.1 5.1 4.9 4.8 4.9 4.5 4.3 4.7 4.8 4.5 4.6 4.5 4.5 5.0 5.0 5.0 5.0 5.1 5.0 4.8 4.9 5.5 5.4 5.8 5.7 6.0 6.3 6.7 7.1 7.1 7.2 7.6 7.8 7.8 7.8 7.7
6.5 6.4 6.4 6.1 5.9 5.9 6.1 5.7 5.3 4.9 5.0 4.9 4.5 4.5 4.1 4.1 3.9 4.2 4.2 4.1 4.0 4.0 4.0 4.3 4.7 4.6 4.8 4.4 5.0 5.3 5.0 5.5 5.5 5.7 5.7 5.9 5.9 6.7 6.8 7.1 7.3 7.3 7.3 7.5 7.6
6.2 6.1 6.2 6.1 5.9 5.9 5.9 5.6 5.3 5.4 5.0 4.7 4.2 4.1 4.0 4.2 4.1 4.0 4.0 4.1 3.8 3.5 3.6 3.9 4.2 3.9 4.3 4.2 4.5 5.2 5.2 5.3 5.6 5.6 5.9 5.7 5.7 5.9 6.5 6.5 6.7 6.9 7.2 7.4 7.4
5.9 5.8 6.0 6.1 5.9 5.7 5.4 5.3 5.1 5.0 5.4 4.6 4.3 4.4 4.2 3.9 3.9 4.2 4.2 4.1 4.3 4.4 4.0 3.8 3.6 3.7 3.6 4.2 4.1 4.6 4.9 4.9 5.2 5.7 5.6 5.6 5.5 5.6 5.7 6.3 6.7 6.8 7.2 7.2 7.3
5.9 5.8 5.7 5.8 5.7 5.2 5.0 4.8 4.7 4.6 4.8 4.5 4.5 4.7 4.4 4.2 4.2 4.8 5.5 6.0 6.7 7.1 7.0 6.7 5.1 4.8 4.1 4.3 4.6 4.6 4.8 5.0 5.0 5.5 5.6 5.3 5.2 5.3 5.7 5.9 6.5 6.8 7.1 7.3 7.3
5.7 5.6 5.6 5.6 5.4 5.2 4.9 4.8 4.7 4.8 4.6 5.0 4.9 4.7 4.8 5.3 5.5 6.1 6.6 7.2 7.4 7.2 7.3 7.2 7.0 6.7 6.7 6.0 5.7 5.4 4.9 4.9 5.0 5.3 5.6 5.4 5.7 5.6 5.3 6.1 6.3 6.7 6.8 7.2 7.3
5.7 5.6 5.6 5.7 5.4 5.2 5.0 4.9 5.0 5.0 5.5 5.3 5.3 5.3 5.4 5.7 5.7 7.2 7.2 7.6 7.5 7.3 7.0 7.4 8.0 8.1 8.6 8.0 7.5 6.7 5.7 5.1 5.0 5.1 5.1 5.2 5.2 5.3 5.8 6.0 6.7 7.0 7.2 7.1 7.1
5.6 5.6 5.6 5.5 5.4 5.3 5.2 5.1 5.2 5.3 5.7 6.0 5.9 5.8 6.3 7.2 7.6 7.5 7.8 7.6 7.5 7.4 6.9 7.1 7.7 8.0 8.4 8.6 8.6 7.7 7.0 6.2 5.7 5.3 5.4 5.2 5.3 5.5 6.0 5.9 6.4 7.1 7.4 7.5 7.2
5.5 5.6 5.5 5.3 5.2 5.3 5.3 5.3 5.3 5.6 5.9 5.8 6.0 6.3 7.0 7.2 7.6 7.7 8.0 7.7 7.7 7.1 7.0 7.4 7.7 8.0 8.3 8.4 8.5 8.4 7.9 7.6 7.1 6.3 5.2 5.7 5.4 5.9 6.6 5.8 6.1 6.6 6.9 6.8 6.7
5.6 5.5 5.4 5.1 5.1 5.4 5.4 5.4 5.5 5.7 5.9 6.3 6.0 7.0 7.5 7.5 7.6 7.6 8.0 7.7 7.6 7.1 7.0 7.2 7.5 7.8 8.4 8.3 8.7 8.3 8.1 8.4 7.8 7.4 5.9 5.5 5.5 5.7 6.1 6.4 6.8 6.8 6.8 7.0 7.1
5.8 5.6 5.5 5.3 5.2 5.3 5.5 5.5 5.8 5.7 5.7 5.8 6.4 6.8 7.4 7.6 7.1 7.2 7.7 7.9 7.9 7.6 7.3 7.2 7.4 7.3 8.2 8.8 8.5 8.4 8.3 7.9 7.9 6.9 6.5 5.8 5.5 5.2 5.9 7.1 6.4 6.7 6.5 6.8 7.3
6.0 5.9 5.7 5.6 5.3 5.4 5.6 5.4 5.5 5.4 5.7 6.0 5.8 6.6 7.0 7.3 7.2 7.2 7.7 8.1 8.0 7.8 7.7 7.5 7.4 7.8 7.7 8.1 8.3 8.3 8.5 8.6 8.1 7.4 6.5 6.3 5.8 6.1 6.3 6.5 6.3 6.4 6.4 7.0 7.6
6.0 5.9 5.8 5.8 5.7 5.6 5.6 5.6 5.8 5.6 5.7 6.0 6.1 6.5 7.0 7.1 7.2 7.2 7.6 8.1 7.9 7.8 7.8 7.6 7.3 7.8 7.6 7.5 7.4 7.4 8.0 8.4 8.3 7.4 7.1 6.4 6.6 6.1 5.7 5.6 6.4 6.5 6.5 7.4 7.7
5.9 5.9 5.6 5.6 5.8 5.7 5.5 5.4 5.8 6.2 6.1 6.2 6.4 6.8 6.8 6.9 7.0 7.1 7.3 7.4 7.7 7.6 7.5 7.6 7.4 7.5 7.9 7.5 7.6 7.9 7.9 8.2 8.3 7.8 6.3 5.7 6.0 6.0 5.9 5.9 6.2 6.3 6.6 7.8 8.0
6.1 5.8 5.4 5.2 5.3 5.7 6.0 5.7 5.8 5.7 6.2 6.2 6.5 6.5 6.6 6.7 6.6 6.9 7.4 7.6 7.2 7.3 7.3 7.5 7.3 7.7 8.5 8.2 8.0 7.9 7.9 7.8 7.2 6.9 6.2 6.4 6.4 6.4 6.0 6.0 6.3 6.0 6.4 7.4 8.0
5.8 5.4 5.2 5.1 5.1 5.2 5.8 6.1 5.9 6.0 6.2 6.2 6.2 6.4 6.3 6.5 6.9 6.6 6.7 6.9 7.1 7.0 7.2 7.0 7.0 7.4 8.0 7.9 7.1 7.1 7.2 7.3 7.0 6.9 6.7 5.3 5.9 6.2 5.9 5.8 6.2 6.0 6.1 6.4 7.6
5.6 5.3 5.1 4.9 5.2 5.2 5.4 5.9 5.6 5.6 6.0 6.1 6.3 6.3 6.2 6.1 6.1 6.5 6.4 6.4 6.7 6.9 7.1 6.9 6.8 7.0 7.1 7.2 7.2 7.0 6.9 6.8 6.9 6.6 5.6 5.8 5.6 5.7 4.8 5.0 5.5 5.7 6.1 6.1 7.1
5.5 5.3 5.5 5.2 5.3 5.7 5.7 5.8 5.9 5.5 5.7 6.2 6.4 6.1 5.8 5.7 5.6 5.7 5.9 6.0 6.1 6.3 6.4 6.9 7.0 6.9 7.0 7.1 7.0 7.1 7.2 7.0 6.5 6.4 5.4 4.8 5.2 5.8 5.7 5.4 5.5 5.8 6.2 6.3 6.4
5.6 5.6 5.7 5.6 5.4 5.6 5.6 5.6 5.9 5.6 6.5 6.4 6.1 5.8 6.0 6.0 6.0 6.7 6.6 6.1 6.0 5.9 6.1 6.5 6.9 6.8 7.0 7.2 7.0 6.9 7.3 7.3 7.0 6.4 5.8 4.6 5.2 6.1 6.3 6.0 6.2 6.4 6.4 6.4 6.4
Wind_Speed
17 18 18 19 19 19 20 20 19 19 19 19 19 20 21 23 25 7 5 5 6 17 15 10 5 4 4 5 5 4 6 11 16 11 5 1 2 1 6 5 3 4 4 4 7
18 18 19 20 20 20 20 21 21 21 20 19 18 19 21 23 14 9 9 7 9 13 5 4 5 8 5 7 7 10 10 16 8 12 6 5 5 3 4 5 4 6 5 5 3
19 19 19 19 20 20 20 20 20 19 18 18 17 17 18 19 5 2 12 16 17 14 7 3 2 6 14 7 12 10 19 18 16 13 11 15 14 5 7 12 11 8 13 8 6
18 18 18 19 19 20 21 20 19 19 18 15 13 13 16 4 5 3 12 16 15 16 2 2 6 6 10 19 15 14 19 20 15 6 7 12 12 17 15 17 13 15 16 15 14
19 20 21 22 22 22 21 20 18 18 17 13 9 8 3 3 7 2 10 12 10 7 6 4 10 11 16 10 17 22 22 14 21 13 14 7 21 21 22 17 19 20 19 18 18
22 23 23 23 24 24 24 24 19 16 12 6 7 3 1 6 1 4 10 10 3 4 4 4 5 9 9 15 18 11 19 22 16 17 19 18 26 21 22 14 16 17 19 19 18
23 23 24 24 24 25 24 24 22 19 11 3 8 5 2 7 3 14 12 4 2 2 3 5 7 9 3 10 11 15 17 12 15 23 19 11 23 36 22 20 25 23 22 23 22
24 24 25 25 25 26 27 28 24 15 3 6 8 2 6 4 8 11 8 7 7 6 4 7 5 6 7 9 7 11 13 22 24 13 9 17 32 32 24 23 27 25 23 22 24
23 23 24 23 24 25 27 26 16 1 7 11 3 1 7 6 6 10 7 9 12 4 5 3 5 6 6 13 8 13 21 26 22 21 19 18 34 22 11 10 20 19 17 16 17
24 24 25 24 24 24 30 22 2 10 5 2 2 3 4 13 11 17 8 11 6 7 4 3 5 10 13 14 19 17 19 19 18 15 22 28 34 24 18 18 20 19 20 21 22
25 26 26 25 25 25 13 3 4 1 4 4 8 6 15 11 16 6 8 4 4 4 1 2 9 18 18 19 21 11 11 17 16 7 20 26 28 25 22 21 23 21 20 22 22
25 26 26 25 24 21 4 4 5 1 8 8 14 11 14 7 7 10 2 2 4 11 3 4 15 13 13 13 18 18 16 9 8 9 7 13 18 15 16 20 21 20 22 22 23
26 25 24 23 26 2 2 5 7 5 3 8 6 5 6 9 6 12 1 2 6 7 7 9 12 6 15 17 14 18 22 20 11 9 15 14 24 24 22 22 23 23 23 23 23
26 24 22 21 1 3 1 7 2 6 3 4 3 0 8 14 4 10 3 2 3 8 7 10 13 13 11 14 15 17 8 11 16 13 13 3 11 16 16 21 21 21 20 22 23
27 25 18 7 5 2 2 6 3 3 4 9 3 3 14 4 11 1 8 3 10 15 10 14 8 8 11 12 11 16 15 12 9 10 11 17 10 15 10 17 14 15 20 22 21
31 25 11 3 3 4 6 3 2 2 4 4 7 11 17 8 15 7 12 4 4 9 13 19 16 8 6 5 8 10 13 17 14 11 14 17 11 22 16 18 17 18 19 17 16
33 23 4 4 2 3 4 2 2 3 4 4 8 12 16 7 13 12 17 7 2 6 3 7 16 18 15 13 12 8 8 7 11 12 17 8 13 23 4 8 14 8 13 17 17
34 5 4 3 7 7 0 1 4 0 4 6 7 16 4 9 12 12 12 7 4 3 5 5 6 7 12 17 15 11 16 7 13 12 15 12 13 8 11 8 13 11 14 15 16
21 1 1 3 2 0 1 1 2 3 3 7 14 3 3 5 9 8 13 7 2 2 5 5 3 9 4 10 8 11 8 18 5 4 7 11 15 14 19 13 8 10 14 17 17
4 3 3 9 3 1 2 2 3 3 7 6 5 3 7 13 10 8 7 4 7 1 2 3 7 3 8 5 8 2 1 9 8 6 8 8 16 8 9 6 9 15 19 19 16
2 0 3 9 1 3 1 3 5 7 6 3 7 9 11 12 6 8 6 12 4 5 4 4 3 3 5 7 10 4 8 6 6 11 3 2 3 1 8 9 14 17 21 20 11
4 1 5 4 1 1 2 6 6 7 1 6 7 11 10 7 8 7 8 6 9 6 9 2 2 6 10 6 5 5 5 10 9 18 10 8 5 4 12 11 16 21 22 17 7
5 3 2 3 2 3 4 6 5 5 5 3 4 4 5 6 6 8 9 5 11 6 4 2 1 5 6 3 3 3 4 6 5 4 14 12 6 10 8 20 20 22 21 15 5
3 3 2 3 1 2 5 5 5 6 10 4 9 10 4 7 10 7 11 8 7 9 10 2 5 10 9 6 6 11 11 11 6 9 14 17 23 26 19 20 22 21 18 14 3
3 2 1 4 2 8 3 5 9 5 3 7 4 6 6 7 18 19 14 13 12 7 8 2 9 12 13 15 14 15 19 18 16 14 10 13 24 22 16 17 20 17 18 13 1
2 3 2 4 7 6 4 3 7 6 6 10 6 13 15 15 18 25 22 16 14 7 11 6 5 11 14 15 16 21 20 20 20 18 17 18 30 20 21 18 18 18 17 11 4
0 1 1 4 3 3 3 3 9 16 10 10 14 17 18 20 17 20 21 21 18 7 9 6 4 6 11 11 12 15 23 24 20 17 17 20 26 21 19 17 18 16 14 15 7
Wind_Direction
6 2 358 356 352 348 343 341 338 336 335 336 336 334 330 324 322 325 280 289 284 312 319 306 296 216 175 214 191 155 226 234 228 208 225 257 268 250 333 282 292 208 183 122 128
3 359 355 351 347 343 339 336 335 334 332 331 330 331 327 325 322 294 247 321 323 310 298 256 228 210 207 204 198 202 220 226 226 210 209 231 243 270 308 281 281 261 55 1 157
356 353 350 346 340 337 335 334 332 329 327 328 330 326 319 326 301 227 190 13 349 334 249 248 230 214 224 206 201 213 230 230 230 224 227 255 267 266 251 259 240 273 307 321 315
349 347 344 341 337 336 335 330 328 324 323 322 319 310 318 334 356 92 351 352 352 357 259 185 198 203 226 220 211 239 232 236 245 227 226 248 266 254 251 251 279 282 288 288 276
346 343 342 340 337 336 333 326 324 321 323 318 303 298 349 339 260 348 347 332 326 349 343 278 224 212 223 224 225 235 240 235 243 241 235 253 259 266 261 262 277 281 279 281 285
343 341 339 338 336 333 330 323 323 318 321 301 258 239 346 325 256 266 320 318 346 10 353 278 240 240 264 238 222 231 241 246 245 236 239 243 258 261 261 267 263 271 277 278 276
340 339 337 335 334 330 326 319 318 317 318 223 188 186 225 245 292 304 307 281 208 200 333 251 262 236 237 246 251 256 253 236 232 235 236 228 265 252 254 263 268 268 266 270 270
338 337 336 335 334 329 325 317 315 314 7 151 156 185 262 251 292 288 281 279 241 223 214 250 236 286 233 292 257 231 235 241 229 214 232 199 252 252 254 247 249 254 258 260 261
335 334 333 333 332 326 319 308 309 273 125 132 115 0 294 295 299 323 220 276 295 198 204 181 145 218 212 225 247 219 232 228 238 221 221 210 246 248 238 233 247 256 259 261 268
335 335 333 333 332 328 321 311 46 121 136 164 136 260 260 323 317 315 275 257 266 283 117 149 194 220 217 209 219 229 237 251 239 218 217 228 246 250 247 274 265 265 268 271 272
337 335 335 333 332 331 331 16 6 338 36 282 294 274 278 290 294 288 311 268 243 242 250 222 227 223 225 228 245 264 262 247 240 211 222 226 243 244 244 256 263 267 268 268 269
337 334 334 332 332 326 323 80 94 330 308 278 266 250 269 267 290 327 24 345 285 253 172 235 251 261 248 239 237 241 247 242 268 254 255 250 261 257 251 255 261 264 268 270 275
335 332 330 328 325 336 352 128 121 142 260 294 253 267 308 307 303 324 327 297 271 264 253 262 273 283 231 239 241 233 238 239 250 284 283 273 273 265 255 255 257 256 261 264 264
334 330 327 328 208 344 238 141 321 194 264 303 331 85 336 319 258 331 234 269 274 284 268 262 253 220 234 230 231 237 220 229 238 243 249 256 279 268 260 258 251 258 256 257 259
331 329 321 316 311 237 53 329 135 196 299 329 332 328 330 346 311 336 357 207 276 282 258 240 287 221 225 234 217 243 228 251 263 251 262 253 277 261 250 264 263 260 253 256 257
332 329 315 129 199 260 310 311 183 232 263 340 329 334 346 337 335 304 329 283 297 284 258 258 252 262 248 243 221 243 210 220 232 245 247 244 236 278 261 263 259 262 267 265 281
333 333 180 161 9 334 319 148 252 232 349 325 326 330 331 318 330 331 324 320 0 315 285 257 243 238 244 257 246 232 210 184 210 217 237 233 210 240 166 289 293 283 297 288 285
334 336 183 240 298 310 260 180 232 19 282 304 313 315 294 352 336 327 317 307 201 321 292 318 315 215 214 219 242 214 209 202 203 210 235 215 224 243 260 279 285 288 298 304 293
334 332 102 327 311 163 322 99 209 237 269 309 319 302 296 299 324 324 315 290 314 75 334 306 278 304 277 254 205 190 200 225 300 224 226 198 246 271 274 272 312 347 335 328 312
338 325 27 334 331 20 48 266 250 233 306 298 284 252 287 316 323 329 307 287 328 358 208 300 295 217 303 334 200 261 282 190 211 220 213 213 236 242 195 82 23 360 349 330 326
6 197 4 340 317 41 42 278 285 280 298 284 284 282 285 308 300 313 273 293 276 334 262 296 257 271 268 178 255 326 234 229 251 237 286 273 169 322 130 59 6 357 350 348 339
338 277 3 329 352 32 288 312 304 290 269 285 272 267 269 297 291 290 260 267 334 332 309 284 291 284 284 285 294 281 289 255 241 221 241 286 277 145 97 21 356 349 348 354 354
345 295 346 324 13 334 315 292 271 282 288 294 281 279 306 292 294 256 269 269 297 270 280 358 249 304 298 175 106 231 231 266 267 274 251 235 243 149 303 339 338 342 346 351 355
333 330 357 46 41 355 323 294 307 285 280 265 293 284 262 273 263 278 272 294 273 277 271 263 243 248 260 302 314 296 288 276 259 256 245 238 265 270 297 319 326 335 342 349 347
8 23 1 314 340 312 290 278 295 304 331 304 265 247 293 284 299 278 275 277 270 263 241 250 242 235 252 268 272 270 273 271 253 244 254 261 257 270 294 308 315 314 325 338 275
359 346 359 285 294 293 283 260 291 317 320 297 259 282 287 281 277 287 290 274 259 245 237 203 253 225 247 257 261 270 261 255 254 252 247 253 264 272 282 286 298 304 314 331 240
134 176 248 278 290 293 280 304 307 317 290 241 284 288 288 289 298 289 277 274 252 223 199 194 212 220 254 259 272 272 253 245 245 240 239 241 255 264 266 270 282 298 302 309 243